This demonstration page uses our WeatherBlox Daily Observations layout. Learn more.

Left ArrowRight Arrow

39.92423, -83.80882

Hourly Observations for September 28, 2021

Temp ( °F °C ) Dew Point ( °F °C ) Humidity (%) Winds ( mph kmh ) Pressure ( in mb ) Visibility ( mi km ) Precip ( " mm )
12:14 am 00:14 Partly Cloudy with Nearby Thunderstorms 70 21 64 18 83 83 SSW 6 9 29.90 1012 10 16 N/A
12:56 am 00:56 Mostly Cloudy with Nearby Thunderstorms 67 19.4 67 19.4 100 100 SW 9 15 29.91 1013 10 16 0.14 3.56
1:56 am 01:56 Cloudy with Nearby Thunderstorms 67 19.4 67 19.4 100 100 SW 10 17 29.91 1013 10 16 0.02 0.51
2:10 am 02:10 Cloudy 66 19 66 19 100 100 SW 12 19 29.90 1012 10 16 N/A
2:56 am 02:56 Cloudy 66 19 N/A N/A SW 9 15 29.91 1013 10 16 N/A
3:56 am 03:56 Cloudy 66 19 N/A N/A SW 7 11 29.89 1012 10 16 N/A
4:56 am 04:56 Mostly Cloudy 65 18.3 65 18.3 100 100 WSW 7 11 29.90 1012 10 16 N/A
5:56 am 05:56 Mostly Cloudy 63 17 N/A N/A WSW 7 11 29.91 1013 10 16 N/A
6:56 am 06:56 Cloudy 63 17 N/A N/A WSW 7 11 29.93 1014 10 16 N/A
7:56 am 07:56 Sunny 63 17 N/A N/A WSW 5 7 29.94 1014 10 16 N/A
8:56 am 08:56 Sunny 66 18.9 65 18.3 96 96 WSW 9 15 29.94 1014 10 16 N/A
9:56 am 09:56 Sunny 70 21.1 64 17.8 82 82 W 10 17 29.96 1014 10 16 N/A
10:56 am 10:56 Sunny 72 22.2 65 18.3 79 79 W 9 15 29.96 1015 10 16 N/A
11:56 am 11:56 Sunny 75 23.9 65 18.3 71 71 W 9 15 29.96 1015 10 16 N/A
12:56 pm 12:56 Mostly Cloudy 77 25 65 18.3 66 66 NNW 8 13 29.96 1015 10 16 N/A
1:05 pm 13:05 Mostly Sunny 77 25 64 18 65 65 WNW 7 11 29.93 1014 10 16 N/A
1:23 pm 13:23 Mostly Cloudy 79 26 64 18 61 61 NW 6 9 29.93 1014 10 16 N/A
1:30 pm 13:30 Partly Cloudy 77 25 64 18 65 65 NW 5 7 29.93 1014 10 16 N/A
1:56 pm 13:56 Mostly Cloudy 77 25 64 17.8 64 64 N N/A 29.96 1015 10 16 N/A
2:56 pm 14:56 Cloudy 76 24.4 65 18.3 69 69 NNE 6 9 29.95 1014 10 16 N/A
3:56 pm 15:56 Mostly Sunny 77 25 64 17.8 64 64 N N/A 29.94 1014 10 16 N/A
4:56 pm 16:56 Hazy 77 25 65 18.3 66 66 NNE 12 19 29.94 1014 5 8 N/A
5:56 pm 17:56 Sunny 75 23.9 64 17.8 69 69 NE 7 11 29.95 1014 7 11 N/A
6:56 pm 18:56 Sunny 72 22.2 64 17.8 76 76 NNE 5 7 29.96 1015 10 16 N/A
7:56 pm 19:56 Clear 66 18.9 64 17.8 93 93 ENE 3 6 29.97 1015 10 16 N/A
8:56 pm 20:56 Clear 64 17.8 64 17.8 100 100 E 3 6 29.98 1015 10 16 N/A
9:56 pm 21:56 Clear 62 16.7 62 16.7 100 100 ENE 8 13 30.00 1016 10 16 N/A
10:56 pm 22:56 Clear 60 15.6 56 13.3 86 86 ENE 8 13 30.01 1016 10 16 N/A
11:56 pm 23:56 Clear 57 13.9 53 11.7 87 87 ENE 6 9 30.01 1016 10 16 N/A

Powered by AerisWeather